Tracking 28799 objects as of 18-Apr-2024
HD Live streaming from Space Station
objects crossing your sky now

METEOR 2-7 DEB

Track METEOR 2-7 DEB now!
10-day predictions


NORAD ID: 36878
Int'l Code: 1981-043R
Perigee: 757.7 km
Apogee: 810.2 km
Inclination: 81.3 °
Period: 100.4 minutes
Semi major axis: 7154 km
RCS: 0.0003 m2 (small)
Launch date: May 14, 1981
Source: Commonwealth of Independent States (former USSR) (CIS)
Launch site: PLESETSK MISSILE AND SPACE COMPLEX (PKMTR)

Note: This is SATELLITE DEBRIS
Your satellite tracking list
Your tracking list is empty




NASA's NSSDC Master Catalog

Two Line Element Set (TLE):
1 36878U 81043R   24107.23360135  .00016889  00000-0  59345-2 0  9995
2 36878  81.2557  64.8217 0036653   0.1268  65.5151 14.34471877756478
Source of the keplerian elements: AFSPC